Vorticity
14 13 14 14 9 6 6 7 10 10 9 5 5 6 6 6 5 5 5 6 6 8 9 9 10 11 12 12 13 13 13 13 13 12 12 11 10 9 8 8 8 8 9 9 10 10 10 11 11 11 12 13 13 13 13 13 12 10 8 7 6 6 5 5 5 4 3 2 1
13 12 15 18 11 9 8 8 9 8 7 6 6 6 6 5 5 5 5 6 8 9 10 10 11 11 12 13 13 13 13 13 12 12 11 11 10 9 8 8 9 9 10 10 10 11 11 11 11 12 13 13 13 13 12 12 10 8 7 6 6 5 4 3 3 2 1 -0 0
10 13 18 18 12 8 6 5 6 6 6 6 7 6 6 5 4 5 6 8 10 10 11 11 11 12 12 13 14 13 13 13 12 12 11 10 9 9 9 9 9 10 10 11 11 11 11 12 13 13 13 13 13 12 10 9 7 6 5 5 5 4 3 1 1 1 0 -0 -0
13 18 21 12 5 1 1 2 4 5 6 7 7 6 5 4 4 6 8 10 10 10 10 11 11 12 13 13 14 14 14 13 13 12 11 10 9 9 9 9 10 11 11 11 11 11 12 12 14 14 14 12 11 9 8 7 5 4 3 4 3 2 1 0 0 0 -0 -1 -1
24 21 9 -5 -5 -4 -1 3 5 7 7 7 7 5 4 4 6 7 9 10 10 10 10 10 11 11 12 13 14 14 14 14 13 12 11 10 10 10 10 10 11 11 11 11 11 12 12 13 14 15 13 11 9 8 6 5 3 2 2 2 1 1 0 -0 -0 0 -0 -0 -0
30 12 -9 -13 -8 -2 2 5 7 8 8 7 6 5 4 5 7 9 9 9 9 9 9 10 11 11 12 13 13 14 14 14 13 12 11 11 10 10 10 10 10 10 10 10 11 13 14 14 15 14 12 9 7 6 5 3 2 1 0 0 0 0 0 -0 0 1 1 1 1
20 -1 -15 -10 -4 2 5 7 8 8 7 6 4 4 5 8 9 9 9 9 9 9 9 10 10 11 11 12 13 13 13 13 13 12 12 11 10 10 10 9 9 10 10 11 12 14 15 15 13 11 9 6 4 4 3 2 1 -0 -1 -1 1 1 1 0 0 1 1 1 1
2 -11 -12 -2 3 6 7 8 8 7 6 4 4 5 7 9 10 10 9 9 9 10 10 11 11 12 12 12 13 13 13 13 12 12 11 10 9 9 9 9 9 10 11 12 14 14 15 14 12 9 6 3 2 2 1 1 0 -1 -1 -1 0 0 0 -0 0 0 1 1 1
-10 -11 -4 4 6 7 8 8 7 6 5 5 6 8 10 11 11 10 10 10 10 10 11 11 12 12 12 13 13 13 12 12 11 10 10 9 9 9 9 10 11 12 13 14 15 14 13 11 9 6 4 1 1 1 1 1 0 -0 -1 -1 -1 -1 -0 -0 0 1 1 1 1
-10 -3 4 7 7 7 7 7 6 5 6 7 9 11 12 13 12 11 11 11 10 11 11 12 12 12 13 13 13 12 12 11 10 9 9 9 9 10 10 11 12 13 13 14 14 13 11 9 6 4 2 0 -0 -0 0 0 -0 -0 -0 -0 -0 -0 0 1 1 2 1 1 0
-3 3 7 7 7 7 7 6 6 7 8 10 11 13 13 13 12 11 11 10 10 10 11 11 11 12 12 12 12 11 11 10 10 9 9 9 10 11 12 12 13 13 13 12 12 11 9 7 4 2 1 0 -0 -0 0 1 0 0 0 1 1 1 1 1 1 1 0 -0 -1
5 7 8 8 8 7 7 7 8 10 11 12 12 12 12 12 11 10 9 9 10 10 10 10 11 11 12 12 11 11 10 10 9 9 10 10 11 12 12 13 13 13 12 11 10 9 8 5 3 2 1 1 0 0 1 1 1 1 1 1 2 2 1 0 -0 -1 -1 -0 0
10 10 9 8 8 8 9 10 11 11 11 11 11 10 10 9 9 8 8 8 9 9 9 10 11 11 11 11 10 10 10 10 10 10 11 12 12 13 13 13 13 12 11 10 9 8 6 4 3 2 1 1 1 1 1 1 1 1 1 1 1 0 -0 -1 -1 -1 0 1 1
10 10 10 9 10 10 11 11 11 11 10 9 8 7 7 7 7 7 7 8 8 9 9 9 10 10 10 10 9 9 9 9 10 11 12 12 13 13 13 13 12 11 10 8 7 6 5 4 3 2 1 1 1 1 1 1 1 1 1 0 -0 -1 -1 -1 -0 1 2 2 4
7 10 11 11 11 11 11 11 10 9 8 7 5 5 5 5 5 6 7 8 8 8 8 8 9 9 9 9 9 9 9 9 10 11 12 13 13 13 12 11 10 9 8 6 6 5 4 3 2 2 1 1 0 1 1 1 1 1 0 -1 -1 -1 -0 0 1 2 3 5 7
6 10 11 11 11 10 10 9 8 7 6 5 4 4 4 4 5 6 7 8 8 8 8 8 8 7 7 8 8 8 9 10 10 11 12 12 12 12 11 10 9 8 7 5 5 4 3 3 2 2 1 1 1 1 1 1 0 -0 -1 -1 -1 0 1 2 4 5 6 9 10
8 10 10 10 9 9 8 7 6 5 5 4 4 4 5 5 6 7 9 9 8 8 8 8 8 7 7 7 8 9 9 10 11 12 12 11 10 10 9 9 8 7 6 5 4 3 2 2 2 2 2 2 1 1 0 -0 -1 -1 -1 -0 1 2 3 5 6 8 10 12 12
9 9 9 8 7 7 6 5 4 4 4 4 4 5 6 7 7 8 9 10 9 9 8 8 8 8 8 8 9 9 10 11 11 12 12 11 10 9 9 8 7 6 5 5 4 3 2 2 2 2 2 1 1 0 -0 -1 -1 -0 1 2 3 5 6 7 9 10 12 12 11
8 8 7 6 6 5 4 4 4 4 4 5 6 7 7 8 9 9 9 10 10 9 8 8 8 8 9 9 9 10 11 12 11 12 11 11 10 9 9 7 6 5 5 4 4 3 3 2 2 2 1 1 0 -0 -0 -0 1 2 3 5 6 7 9 10 11 11 11 10 9
7 7 6 6 6 5 5 5 5 5 6 7 8 8 9 10 10 10 10 10 10 9 8 8 8 8 9 10 10 11 11 12 12 11 11 11 10 9 8 7 6 5 5 5 4 4 3 3 2 1 1 0 0 1 1 2 4 5 6 7 9 10 11 11 11 10 9 8 7
8 8 8 7 7 7 6 6 7 7 8 8 9 10 10 11 11 12 11 10 9 9 8 8 8 8 9 10 11 11 11 11 11 11 11 10 9 8 8 7 6 6 6 5 5 4 3 2 2 1 1 1 2 3 4 5 6 7 8 9 10 10 10 10 9 8 8 7 7
8 8 8 8 8 8 8 8 8 9 9 9 10 10 11 11 12 13 12 11 10 9 9 8 9 9 10 10 11 11 11 11 11 10 10 9 9 8 8 7 7 7 6 5 4 3 3 2 2 2 2 3 4 5 6 7 8 9 9 10 10 9 9 8 8 7 7 7 8
8 8 8 8 8 8 8 8 9 10 10 10 10 10 11 12 13 13 13 12 11 10 9 8 9 9 9 9 9 9 9 10 9 9 9 8 8 8 8 7 7 6 5 5 4 4 3 3 3 3 4 5 5 6 7 8 8 9 9 9 9 8 8 7 8 8 8 8 8
8 8 8 8 8 9 9 10 10 11 11 11 11 11 11 12 12 12 12 11 10 8 8 7 7 7 7 7 8 8 7 8 8 8 8 8 8 8 7 7 6 5 5 5 4 4 4 4 4 5 5 6 7 7 8 9 9 9 9 9 8 8 8 8 8 8 8 8 8
8 9 9 9 10 10 11 12 12 13 13 12 12 12 12 12 12 11 10 9 7 6 6 5 5 6 6 7 7 7 7 7 7 7 7 7 7 6 6 5 5 5 4 4 4 4 4 5 6 7 7 8 8 9 9 9 9 8 8 8 8 8 8 8 8 8 7 7 7
10 11 11 11 12 13 13 14 14 14 14 14 13 13 13 12 11 10 8 7 6 6 5 6 7 8 9 9 9 9 9 8 7 7 6 6 5 5 5 4 4 4 4 4 5 5 6 7 7 8 8 9 9 9 9 8 8 8 7 8 8 8 7 7 6 6 7 8 9
12 13 13 14 15 15 16 16 16 16 16 16 15 14 13 12 11 10 9 8 7 7 8 9 10 10 10 10 9 8 7 7 6 5 5 4 4 4 4 4 4 5 6 7 7 8 8 9 9 9 9 9 9 8 8 7 7 7 7 7 7 7 7 6 6 7 9 10 12
13 14 14 15 15 16 16 16 17 17 17 17 16 15 14 13 12 11 11 10 10 10 11 12 11 10 9 8 7 6 6 5 5 4 4 4 4 5 6 6 7 8 8 9 9 9 9 9 9 8 8 8 7 7 7 7 6 6 7 7 7 8 8 9 10 11 12 13 13
12 13 13 13 13 13 14 15 15 15 15 15 15 14 13 13 12 12 11 11 11 11 10 10 9 8 7 6 6 6 5 5 5 5 6 6 7 7 8 9 9 9 9 8 8 8 7 7 7 7 7 6 6 6 7 7 7 7 8 9 9 11 12 13 14 14 14 13 12
11 11 11 11 12 12 12 12 12 13 13 13 12 12 12 11 11 10 10 10 10 9 9 8 8 7 7 7 7 7 7 7 7 8 8 8 9 9 9 8 8 7 7 6 6 6 6 6 6 6 7 7 7 7 7 7 8 9 10 11 13 14 14 15 14 13 13 11 11
13 13 13 13 12 12 12 12 12 12 12 12 11 11 11 11 10 10 10 9 9 9 9 9 9 8 8 8 8 8 8 9 9 8 8 8 7 7 6 6 5 5 5 5 6 6 6 7 7 7 7 7 7 8 8 9 11 12 13 14 15 15 14 13 12 11 11 10 10
14 14 14 14 13 13 13 13 12 12 12 12 12 11 11 11 11 10 10 10 10 10 10 9 9 8 8 8 8 7 7 7 6 6 5 4 4 4 4 4 5 5 6 7 7 7 8 8 8 8 8 8 8 10 11 12 13 14 15 14 14 13 12 11 11 10 10 10 11
11 11 11 11 11 11 11 11 11 10 10 10 10 10 10 10 9 9 9 9 8 8 7 7 6 6 5 5 5 4 4 3 3 3 3 3 4 4 5 6 6 7 7 8 8 8 8 8 8 8 9 10 11 13 13 14 14 14 14 13 12 11 11 10 10 10 10 10 10
6 6 6 6 6 6 6 6 6 6 6 6 6 6 5 5 5 5 5 5 4 4 4 3 3 3 3 2 2 2 2 2 3 3 4 5 6 6 6 6 7 7 7 8 7 7 8 8 9 11 12 13 14 14 14 14 13 13 12 11 11 10 10 10 10 10 10 9 8
3 3 3 3 2 2 2 2 2 3 3 3 2 2 2 2 2 2 2 2 2 2 2 2 2 2 2 3 3 3 4 4 4 5 6 6 7 7 7 6 6 7 7 8 8 9 10 11 12 13 14 14 14 14 13 12 12 11 10 10 10 10 10 10 9 9 8 7 6
2 2 2 2 2 2 2 2 3 3 3 3 3 3 2 2 2 3 3 3 3 3 3 3 3 4 4 4 5 5 6 6 6 6 6 6 7 7 7 7 8 9 10 11 12 12 13 14 14 14 14 14 13 12 12 11 10 10 9 9 9 9 9 8 8 7 6 5 4
4 4 4 4 4 4 5 5 5 5 5 5 5 5 4 4 5 5 4 4 4 5 5 5 5 6 6 6 7 7 7 8 8 8 8 8 9 9 10 11 13 13 14 14 14 14 14 14 14 13 13 12 12 11 10 10 9 9 9 9 9 8 7 6 5 5 4 4 3
6 7 7 7 7 7 7 7 7 7 7 7 6 6 6 6 6 6 6 6 7 7 7 7 7 7 8 8 8 8 8 9 10 10 11 12 12 13 13 14 15 15 15 15 15 14 14 13 13 12 11 11 10 10 9 9 9 8 8 8 7 6 5 4 4 3 3 3 3
8 8 8 8 8 8 8 8 8 8 7 7 7 7 7 7 7 7 7 8 8 8 8 8 9 9 10 10 10 10 10 11 12 13 13 14 15 15 15 15 15 15 15 14 14 13 12 12 11 11 11 10 9 9 8 8 7 7 6 6 5 4 4 3 3 3 4 4 4
9 9 9 9 8 8 8 8 8 7 7 7 7 7 7 7 8 8 8 8 9 9 10 10 11 11 11 11 12 12 13 14 14 15 15 15 15 15 15 15 14 14 13 13 12 12 11 11 10 10 10 9 8 8 7 7 6 6 5 4 4 3 3 4 4 4 4 4 4
9 9 9 9 8 8 8 8 8 8 8 8 8 8 8 9 9 9 9 9 10 10 11 12 12 12 13 13 13 14 14 15 16 16 16 15 15 15 14 13 13 12 12 11 11 10 10 10 9 9 8 8 7 6 6 6 5 5 4 4 4 4 4 4 4 4 4 4 4
Height
3031 3033 3036 3039 3042 3045 3048 3050 3052 3055 3058 3060 3062 3063 3063 3063 3064 3064 3065 3066 3066 3067 3068 3068 3069 3070 3071 3072 3072 3073 3074 3075 3076 3077 3077 3078 3079 3079 3080 3081 3081 3082 3083 3083 3084 3085 3085 3086 3087 3087 3088 3088 3089 3090 3090 3091 3091 3092 3093 3093 3093 3094 3094 3094 3095 3095 3095 3095 3095
3031 3033 3036 3038 3041 3044 3046 3049 3052 3054 3057 3058 3059 3061 3061 3062 3063 3063 3064 3064 3065 3066 3067 3068 3068 3069 3070 3070 3071 3072 3073 3074 3075 3076 3076 3077 3078 3078 3079 3080 3080 3081 3082 3083 3083 3084 3084 3085 3086 3086 3087 3088 3088 3088 3089 3090 3091 3091 3092 3092 3093 3093 3093 3094 3094 3094 3094 3094 3094
3031 3033 3036 3038 3040 3043 3046 3048 3051 3053 3055 3057 3058 3059 3060 3060 3061 3062 3063 3063 3064 3065 3066 3067 3067 3068 3069 3069 3070 3071 3072 3073 3074 3075 3075 3076 3077 3078 3078 3079 3080 3080 3081 3082 3082 3083 3083 3084 3085 3085 3086 3087 3087 3088 3088 3089 3090 3091 3091 3091 3092 3092 3093 3093 3093 3093 3093 3093 3093
3031 3033 3035 3037 3039 3043 3046 3048 3050 3052 3053 3055 3057 3058 3058 3059 3060 3061 3062 3063 3063 3064 3065 3066 3066 3067 3068 3068 3069 3070 3071 3072 3073 3073 3074 3075 3076 3077 3077 3078 3079 3079 3080 3081 3082 3082 3083 3083 3084 3084 3085 3086 3086 3087 3088 3088 3089 3090 3090 3091 3091 3091 3092 3092 3092 3092 3092 3092 3092
3030 3032 3033 3036 3040 3043 3046 3048 3049 3051 3053 3054 3055 3056 3057 3058 3059 3060 3061 3062 3062 3063 3064 3065 3065 3066 3067 3068 3068 3069 3070 3071 3072 3073 3073 3074 3075 3076 3076 3077 3078 3079 3079 3080 3081 3081 3082 3083 3083 3084 3084 3085 3086 3086 3087 3088 3088 3089 3089 3090 3090 3091 3091 3091 3091 3091 3091 3091 3091
3028 3030 3033 3037 3040 3043 3045 3047 3048 3050 3052 3053 3054 3055 3056 3057 3058 3059 3060 3061 3061 3062 3063 3064 3065 3065 3066 3067 3068 3068 3069 3070 3071 3072 3073 3073 3074 3075 3076 3076 3077 3078 3078 3079 3080 3080 3081 3082 3082 3083 3083 3084 3085 3086 3087 3087 3088 3088 3088 3089 3089 3090 3090 3090 3090 3090 3090 3090 3090
3027 3030 3033 3037 3039 3042 3044 3046 3048 3050 3051 3053 3053 3054 3055 3056 3057 3058 3059 3060 3061 3062 3062 3063 3064 3065 3065 3066 3067 3068 3068 3069 3070 3071 3072 3072 3073 3074 3075 3075 3076 3077 3078 3078 3079 3079 3080 3081 3082 3082 3083 3084 3084 3085 3086 3087 3087 3088 3088 3088 3088 3088 3089 3089 3089 3089 3089 3088 3088
3027 3031 3034 3037 3039 3042 3044 3046 3048 3049 3051 3052 3053 3054 3055 3056 3057 3057 3058 3059 3060 3061 3062 3063 3063 3064 3065 3065 3066 3067 3068 3068 3069 3070 3071 3072 3072 3073 3074 3074 3075 3076 3077 3077 3078 3078 3079 3080 3081 3082 3082 3083 3084 3084 3085 3086 3086 3087 3087 3087 3087 3088 3088 3088 3088 3088 3088 3087 3087
3028 3031 3035 3037 3039 3042 3043 3045 3047 3049 3051 3052 3053 3053 3054 3055 3056 3057 3057 3058 3059 3060 3061 3062 3063 3063 3064 3064 3065 3066 3067 3068 3068 3069 3070 3071 3071 3072 3073 3073 3074 3075 3076 3076 3077 3078 3079 3079 3080 3081 3082 3083 3083 3084 3084 3085 3085 3086 3086 3086 3086 3087 3087 3087 3087 3086 3086 3086 3086
3029 3032 3035 3037 3039 3041 3043 3045 3047 3049 3050 3051 3052 3053 3054 3054 3055 3056 3057 3058 3058 3059 3060 3061 3062 3063 3063 3064 3064 3065 3066 3067 3068 3068 3069 3070 3070 3071 3072 3073 3073 3074 3075 3076 3076 3077 3078 3079 3080 3080 3081 3082 3083 3083 3083 3084 3084 3085 3085 3085 3085 3085 3085 3085 3085 3085 3085 3084 3084
3030 3032 3035 3037 3039 3041 3043 3045 3047 3049 3050 3051 3052 3052 3053 3054 3054 3055 3056 3057 3058 3058 3059 3060 3061 3062 3062 3063 3064 3064 3065 3066 3067 3068 3068 3069 3070 3070 3071 3072 3073 3073 3074 3075 3076 3077 3078 3078 3079 3080 3081 3081 3082 3082 3083 3083 3083 3084 3084 3084 3084 3084 3084 3084 3084 3084 3083 3083 3083
3030 3033 3035 3037 3039 3041 3043 3045 3047 3048 3049 3050 3051 3052 3052 3053 3053 3054 3055 3056 3057 3058 3058 3059 3060 3061 3062 3062 3063 3064 3064 3065 3066 3067 3068 3068 3069 3070 3070 3071 3072 3073 3074 3074 3075 3076 3077 3078 3078 3079 3080 3080 3081 3082 3082 3082 3083 3083 3083 3083 3083 3083 3083 3083 3083 3082 3082 3081 3080
3030 3033 3035 3037 3039 3041 3043 3045 3046 3048 3048 3049 3050 3051 3051 3052 3053 3053 3054 3055 3056 3057 3058 3059 3059 3060 3061 3062 3063 3063 3064 3065 3065 3066 3067 3068 3068 3069 3070 3071 3072 3072 3073 3074 3075 3076 3077 3077 3078 3078 3079 3080 3080 3081 3081 3081 3082 3082 3082 3082 3082 3082 3082 3081 3081 3080 3080 3079 3078
3031 3033 3035 3037 3039 3041 3043 3044 3045 3046 3047 3048 3049 3049 3050 3051 3052 3053 3054 3054 3055 3056 3057 3058 3059 3060 3060 3061 3062 3063 3063 3064 3065 3066 3066 3067 3068 3068 3069 3070 3071 3072 3073 3073 3074 3075 3076 3077 3077 3078 3078 3079 3079 3080 3080 3080 3080 3081 3081 3081 3080 3080 3080 3079 3079 3078 3078 3077 3076
3031 3033 3036 3038 3039 3041 3042 3043 3044 3045 3046 3047 3048 3048 3049 3050 3051 3052 3053 3054 3055 3056 3057 3058 3058 3059 3060 3061 3062 3062 3063 3064 3064 3065 3066 3067 3067 3068 3069 3070 3070 3071 3072 3073 3074 3074 3075 3076 3076 3077 3078 3078 3078 3078 3079 3079 3079 3079 3079 3079 3079 3079 3078 3078 3077 3076 3076 3075 3074
3032 3034 3036 3038 3039 3040 3041 3043 3043 3044 3045 3046 3047 3048 3049 3050 3051 3052 3053 3053 3054 3055 3056 3057 3058 3058 3059 3060 3061 3062 3062 3063 3064 3064 3065 3066 3067 3068 3068 3069 3070 3071 3071 3072 3073 3074 3074 3075 3076 3076 3077 3077 3077 3078 3078 3078 3078 3078 3078 3078 3077 3077 3076 3076 3075 3074 3073 3073 3072
3033 3034 3036 3037 3038 3039 3040 3042 3043 3043 3044 3045 3046 3047 3048 3049 3050 3051 3052 3053 3054 3055 3056 3056 3057 3058 3059 3060 3060 3061 3062 3062 3063 3064 3064 3065 3066 3067 3068 3068 3069 3070 3071 3071 3072 3073 3073 3074 3075 3075 3076 3076 3076 3076 3077 3077 3077 3077 3076 3076 3075 3075 3074 3074 3073 3073 3072 3071 3070
3033 3034 3035 3036 3038 3038 3039 3041 3042 3043 3043 3044 3046 3047 3048 3049 3050 3051 3052 3053 3053 3054 3055 3056 3057 3058 3058 3059 3060 3060 3061 3062 3062 3063 3064 3065 3065 3066 3067 3068 3068 3069 3070 3071 3071 3072 3073 3073 3074 3074 3074 3075 3075 3075 3075 3075 3075 3075 3074 3074 3073 3073 3073 3072 3071 3071 3070 3069 3068
3032 3033 3034 3036 3037 3038 3039 3040 3041 3042 3043 3044 3045 3046 3047 3048 3049 3050 3051 3052 3053 3053 3054 3055 3056 3057 3058 3058 3059 3060 3060 3061 3062 3063 3063 3064 3065 3065 3066 3067 3068 3068 3069 3070 3070 3071 3072 3072 3073 3073 3073 3074 3074 3074 3074 3073 3073 3073 3073 3072 3072 3071 3071 3070 3070 3069 3068 3068 3067
3032 3033 3034 3035 3036 3038 3038 3040 3041 3042 3043 3044 3045 3046 3047 3048 3049 3050 3050 3051 3052 3053 3054 3054 3055 3056 3057 3058 3058 3059 3060 3060 3061 3062 3063 3063 3064 3065 3065 3066 3067 3068 3068 3069 3070 3070 3071 3071 3072 3072 3072 3072 3072 3072 3072 3072 3071 3071 3071 3070 3070 3069 3069 3068 3068 3067 3067 3066 3065
3031 3033 3034 3035 3036 3037 3038 3039 3041 3042 3043 3044 3045 3046 3047 3048 3048 3049 3050 3051 3052 3053 3053 3054 3055 3055 3056 3057 3058 3058 3059 3060 3060 3061 3062 3063 3063 3064 3064 3065 3066 3067 3068 3068 3069 3069 3070 3070 3071 3071 3071 3071 3071 3070 3070 3070 3069 3069 3069 3068 3068 3068 3067 3067 3066 3065 3064 3064 3063
3031 3033 3033 3035 3036 3037 3038 3039 3040 3041 3043 3043 3044 3045 3046 3047 3048 3049 3049 3050 3051 3052 3053 3053 3054 3055 3056 3057 3057 3058 3058 3059 3060 3060 3061 3062 3062 3063 3064 3064 3065 3066 3067 3068 3068 3069 3069 3069 3069 3069 3069 3069 3069 3068 3068 3068 3068 3067 3067 3067 3066 3066 3065 3065 3064 3063 3063 3062 3061
3031 3032 3033 3034 3035 3037 3038 3039 3040 3041 3042 3043 3043 3044 3045 3046 3047 3048 3049 3050 3051 3051 3052 3053 3054 3054 3055 3056 3057 3057 3058 3058 3059 3060 3060 3061 3062 3062 3063 3064 3065 3065 3066 3067 3067 3068 3068 3068 3068 3068 3068 3067 3067 3067 3066 3066 3066 3066 3065 3065 3064 3064 3063 3063 3062 3061 3061 3060 3059
3031 3032 3033 3034 3035 3036 3037 3038 3039 3040 3041 3042 3043 3043 3044 3045 3046 3047 3048 3049 3050 3051 3052 3052 3053 3054 3055 3055 3056 3056 3057 3058 3058 3059 3059 3060 3061 3062 3062 3063 3064 3064 3065 3066 3066 3066 3066 3066 3066 3066 3066 3066 3065 3065 3065 3065 3065 3064 3064 3063 3063 3062 3062 3061 3060 3059 3059 3058 3057
3031 3032 3033 3034 3035 3036 3037 3038 3039 3039 3040 3041 3042 3043 3044 3045 3046 3047 3048 3048 3049 3050 3051 3052 3052 3053 3054 3054 3055 3056 3056 3057 3058 3058 3059 3059 3060 3061 3062 3062 3063 3063 3064 3064 3064 3065 3065 3065 3065 3064 3064 3064 3064 3064 3064 3063 3063 3063 3062 3062 3061 3060 3060 3059 3058 3058 3057 3056 3055
3032 3032 3033 3034 3035 3036 3037 3038 3038 3039 3040 3041 3042 3042 3043 3044 3045 3046 3047 3048 3048 3049 3050 3051 3052 3053 3053 3054 3055 3055 3056 3056 3057 3058 3058 3059 3060 3060 3061 3061 3062 3062 3063 3063 3063 3063 3063 3063 3063 3063 3063 3063 3063 3063 3062 3062 3062 3061 3061 3060 3060 3059 3058 3057 3057 3056 3055 3054 3054
3032 3033 3033 3034 3035 3036 3037 3037 3038 3039 3039 3040 3041 3042 3043 3044 3045 3046 3047 3047 3048 3049 3050 3051 3052 3053 3053 3054 3054 3055 3055 3056 3057 3058 3058 3058 3059 3060 3060 3060 3061 3061 3062 3062 3062 3062 3062 3062 3062 3062 3062 3062 3062 3061 3061 3061 3060 3060 3059 3058 3058 3057 3056 3056 3055 3054 3053 3053 3052
3032 3033 3034 3034 3035 3036 3037 3037 3038 3039 3039 3040 3041 3042 3043 3044 3045 3046 3046 3047 3048 3049 3050 3051 3052 3052 3053 3053 3054 3055 3055 3056 3056 3057 3057 3058 3058 3058 3059 3059 3060 3060 3060 3061 3061 3061 3061 3061 3061 3061 3061 3061 3060 3060 3059 3059 3058 3058 3058 3057 3056 3055 3055 3054 3053 3053 3052 3052 3051
3033 3033 3034 3035 3035 3036 3037 3038 3038 3039 3040 3041 3041 3042 3043 3044 3045 3046 3046 3047 3048 3049 3050 3050 3051 3052 3053 3053 3054 3054 3055 3055 3056 3056 3056 3057 3057 3058 3058 3058 3059 3059 3059 3060 3060 3060 3060 3060 3060 3060 3060 3059 3059 3058 3058 3057 3057 3056 3056 3055 3055 3054 3053 3053 3052 3052 3051 3050 3050
3033 3033 3034 3035 3036 3037 3037 3038 3039 3039 3040 3041 3042 3043 3043 3044 3045 3045 3046 3047 3048 3049 3049 3050 3051 3052 3052 3053 3053 3053 3054 3054 3055 3055 3056 3056 3057 3057 3057 3058 3058 3058 3058 3059 3059 3059 3059 3059 3058 3058 3058 3058 3057 3057 3056 3056 3055 3055 3054 3054 3053 3053 3052 3051 3051 3050 3050 3049 3048
3033 3034 3035 3036 3036 3037 3038 3038 3039 3040 3040 3041 3042 3043 3043 3044 3045 3045 3046 3047 3048 3048 3049 3050 3050 3051 3051 3052 3052 3053 3053 3053 3054 3055 3055 3055 3056 3056 3057 3057 3057 3057 3058 3058 3058 3058 3058 3057 3057 3057 3056 3056 3056 3055 3055 3054 3054 3053 3053 3052 3052 3051 3051 3050 3049 3049 3048 3048 3048
3034 3035 3035 3036 3037 3038 3038 3039 3039 3040 3041 3041 3042 3043 3043 3044 3045 3045 3046 3047 3048 3048 3049 3049 3050 3050 3051 3051 3052 3052 3053 3053 3054 3054 3055 3055 3055 3056 3056 3056 3056 3056 3056 3056 3056 3056 3056 3056 3055 3055 3055 3054 3054 3054 3053 3053 3053 3052 3051 3051 3050 3050 3049 3049 3048 3048 3048 3047 3047
3034 3035 3036 3037 3037 3038 3038 3039 3040 3040 3041 3042 3042 3043 3043 3044 3045 3045 3046 3047 3047 3048 3048 3049 3049 3050 3050 3051 3051 3052 3052 3053 3053 3054 3054 3054 3055 3055 3055 3055 3055 3055 3055 3055 3054 3054 3054 3054 3053 3053 3053 3053 3053 3053 3052 3052 3051 3050 3050 3049 3049 3049 3048 3048 3048 3047 3047 3046 3046
3035 3036 3036 3037 3038 3038 3039 3039 3040 3041 3041 3042 3042 3043 3043 3044 3045 3045 3046 3047 3047 3048 3048 3048 3049 3049 3050 3050 3051 3051 3052 3052 3053 3053 3053 3053 3053 3053 3053 3053 3053 3053 3053 3053 3053 3053 3053 3052 3052 3052 3052 3052 3052 3051 3051 3050 3050 3049 3049 3048 3048 3048 3047 3047 3047 3046 3046 3045 3045
3035 3036 3037 3037 3038 3038 3039 3039 3040 3041 3041 3042 3043 3043 3043 3044 3045 3045 3046 3046 3047 3047 3048 3048 3048 3049 3049 3050 3050 3051 3051 3051 3052 3052 3052 3052 3052 3052 3052 3052 3052 3052 3052 3051 3051 3051 3051 3051 3051 3051 3051 3050 3050 3050 3049 3049 3048 3048 3048 3047 3047 3047 3047 3046 3046 3045 3045 3044 3043
3036 3036 3037 3038 3038 3039 3039 3040 3040 3041 3041 3042 3042 3043 3043 3044 3044 3045 3045 3046 3046 3047 3047 3048 3048 3048 3049 3049 3049 3050 3050 3050 3050 3050 3050 3050 3050 3050 3050 3050 3050 3050 3050 3050 3050 3050 3050 3050 3050 3050 3049 3049 3049 3048 3048 3048 3048 3047 3047 3046 3046 3046 3046 3045 3045 3044 3044 3043 3042
3036 3037 3037 3038 3038 3039 3039 3040 3040 3041 3041 3042 3042 3043 3043 3043 3044 3044 3045 3045 3045 3046 3046 3047 3047 3047 3048 3048 3048 3048 3048 3048 3048 3049 3049 3049 3049 3049 3049 3049 3049 3049 3049 3049 3049 3049 3049 3049 3049 3048 3048 3048 3048 3048 3047 3047 3047 3046 3046 3046 3045 3045 3045 3044 3044 3043 3043 3042 3041
3036 3036 3037 3038 3038 3038 3039 3039 3040 3040 3041 3041 3042 3042 3042 3043 3043 3044 3044 3044 3045 3045 3045 3046 3046 3046 3046 3047 3047 3047 3047 3047 3047 3048 3048 3048 3048 3048 3048 3048 3048 3048 3048 3048 3048 3048 3048 3048 3048 3048 3048 3047 3047 3047 3046 3046 3046 3045 3045 3045 3044 3044 3044 3043 3043 3042 3041 3040 3039
3036 3036 3037 3037 3038 3038 3038 3039 3039 3040 3040 3041 3041 3041 3042 3042 3043 3043 3043 3043 3044 3044 3044 3045 3045 3045 3045 3045 3046 3046 3046 3046 3046 3047 3047 3047 3047 3047 3047 3047 3047 3047 3047 3047 3047 3047 3047 3047 3047 3047 3047 3046 3046 3046 3045 3045 3045 3044 3044 3044 3043 3043 3043 3042 3041 3041 3040 3039 3038
3036 3036 3036 3037 3037 3038 3038 3038 3038 3039 3039 3040 3040 3040 3041 3041 3042 3042 3042 3043 3043 3043 3043 3044 3044 3044 3044 3044 3045 3045 3045 3045 3045 3046 3046 3046 3046 3046 3046 3046 3046 3046 3046 3046 3046 3046 3046 3046 3046 3046 3046 3046 3045 3045 3045 3044 3044 3043 3043 3043 3043 3042 3041 3041 3040 3039 3038 3038 3036
3035 3036 3036 3036 3036 3037 3037 3038 3038 3038 3038 3039 3039 3039 3040 3040 3041 3041 3041 3042 3042 3042 3043 3043 3043 3043 3043 3043 3044 3044 3044 3044 3044 3045 3045 3045 3045 3045 3045 3045 3045 3046 3046 3046 3046 3046 3046 3046 3045 3045 3045 3045 3045 3044 3044 3043 3043 3043 3042 3042 3041 3041 3040 3039 3038 3038 3037 3036 3035